Preview of NWS' New Version of Forecast
This preview is not operational and should not be used for support decisions.

Regional Weather Roundup (RWR)

Issued by National Weather Service (NWS)

                            
000
ASUS45 KBOI 240110
RWRID 

IDAHO REGIONAL WEATHER ROUNDUP
NATIONAL WEATHER SERVICE BOISE ID
700 PM MDT SUN JUN 23 2019

NOTE: "FAIR" INDICATES FEW OR NO CLOUDS BELOW 12000 FEET
WITH NO SIGNIFICANT WEATHER AND/OR OBSTRUCTIONS TO VISIBILITY

IDZ012-014-240200-
SOUTHWEST IDAHO

  
CITY           SKY/WX    TMP DP  RH WIND       PRES   REMARKS
BOISE          SUNNY     76  37  24 NW13G24   29.94F                  
CALDWELL       SUNNY     76  43  30 NW13      29.93F                  
MOUNTAIN HOME  SUNNY     78  30  17 NW18G26   29.92S                  
$$

IDZ016-017-240200-
SOUTHCENTRAL IDAHO

  
CITY           SKY/WX    TMP DP  RH WIND       PRES   REMARKS
BURLEY         SUNNY     73  36  25 W10       29.94F                  
JEROME         SUNNY     74  35  24 NW24G30   29.95F                  
TWIN FALLS     SUNNY     74  30  19 NW17G26   29.96S                  
$$

IDZ019>023-240200-
SOUTHEAST IDAHO

  
CITY           SKY/WX    TMP DP  RH WIND       PRES   REMARKS
IDAHO FALLS    PTSUNNY   72  35  25 SW18G26   29.92F                  
POCATELLO      MOSUNNY   74  39  28 W22       29.94F                  
REXBURG        CLOUDY    69  34  27 SW20G25   29.91F                  
$$

IDZ006-010-011-018-031-032-240200-
CENTRAL IDAHO MOUNTAINS

  
CITY           SKY/WX    TMP DP  RH WIND       PRES   REMARKS
MCCALL         PTSUNNY   64  36  35 VRB6G17   30.00R                  
HAILEY         SUNNY     66  36  32 SW16G25   29.97S                  
STANLEY          N/A     62  27  26 NW8G16    30.05R                  
SALMON         CLOUDY    66  45  46 N12       29.91S                  
CHALLIS        FAIR      72  32  23 W9        29.92R                  
$$

IDZ002-004-006-007-026-240200-
NORTHERN IDAHO

  
CITY           SKY/WX    TMP DP  RH WIND       PRES   REMARKS
LEWISTON       MOSUNNY   74  39  28 NW10      29.93F                  
LOWELL           N/A     68  52  56 VRB3      29.94S                  
COEUR D'ALENE  PTSUNNY   67  44  43 SW12      29.93S                  
MULLAN PASS    CLOUDY    46  39  76 VRB5      30.03S                  
$$